パンスターズ彗星

C/2015 J2 ( PanSTARRS )

English version
Home page
Updated on November 13, 2016

---------------------------------------------------------------------

・ プロフィール

発見日 2015年5月15日
発見光度 19.6等
発見者 Pan-STARRS 1 telescope (Haleakala)

・ 写真集

・ 軌道要素

Epoch 2015 Sept. 15.0 TT = JDT 2457280.5
T 2015 Sept. 8.91103 TT                                 MPCW
q   4.3203692            (2000.0)            P               Q
z  +0.0040371      Peri.  203.68908     -0.18117168     +0.95155227
 +/-0.0000026      Node    56.75541     -0.84815422     -0.02330420
e   0.9825582      Incl.   17.28131     -0.49780643     -0.30660265
From 82 observations 2015 Mar. 21-2016 Apr. 19, mean residual 0".4.

・ 光度変化

        m1 = 9.5 + 5 logΔ + 10.0 log r

---------------------------------------------------------------------

軌道要素はM.P.E.C. 2016-K18に掲載されたものです。
光度グラフはComet for Windowsで作成したものです。

---------------------------------------------------------------------

Copyright(C) Seiichi Yoshida (comet@aerith.net). All rights reserved.